Tracking 31027 objects as of 19-Jul-2025
HD Live streaming from Space Station
objects crossing your sky now

ARIANE 42P DEB

Track ARIANE 42P DEB now!
10-day predictions


NORAD ID: 47108
Int'l Code: 1992-052P
Perigee: 581.1 km
Apogee: 2,417.7 km
Inclination: 65.8 °
Period: 115.8 minutes
Semi major axis: 7870 km
RCS: Unknown
Launch date: August 10, 1992
Source: France (FR)
Launch site: FRENCH GUIANA (FRGUI)

Note: This is SATELLITE DEBRIS
Your satellite tracking list
SL-14 DEB
Track 1 satellite(s)




NASA's NSSDC Master Catalog

Two Line Element Set (TLE):
1 47108U 92052P   25199.34126609  .00000456  00000-0  28102-3 0  9996
2 47108  65.8199 327.3391 1166813  61.6574 309.7104 12.43390496 57684
Source of the keplerian elements: AFSPC